Regional Weather Roundup
Issued by NWS

Home | Current Version | Previous Version | Graphics & Text | Print | Product List | Glossary Off
Versions: 1 2 3 4 5 6 7 8 9 10 11 12 13 14 15 16 17 18 19 20 21 22 23 24 25 26 27 28 29 30 31 32 33 34 35 36 37 38 39 40 41 42 43 44 45 46 47 48 49 50

000
ASUS43 KMKX 051700
RWRWI

WISCONSIN REGIONAL WEATHER ROUNDUP
NATIONAL WEATHER SERVICE MILWAUKEE/SULLIVAN WI
1200 PM CDT SUN JUL 05 2015

NOTE: "FAIR" INDICATES FEW OR NO CLOUDS BELOW 12,000 FEET WITH NO
SIGNIFICANT WEATHER AND/OR OBSTRUCTIONS TO VISIBILITY.

WIZ001-002-006>008-014>016-023>028-051800-
NORTHWEST WISCONSIN

CITY           SKY/WX    TMP DP  RH WIND       PRES   REMARKS
SUPERIOR ARPT  MOSUNNY   79  66  64 S13       29.85F HX  81
ASHLAND        MOSUNNY   81  64  56 S13G21    29.90F HX  82
HAYWARD        MOSUNNY   78  62  57 S17G24    29.93F HX  80
SIREN          PTSUNNY   79  62  55 S14G20    29.90S HX  80
CUMBERLAND     MOSUNNY   75  61  60 S14       29.93F
RICE LAKE      MOSUNNY   78  62  58 S12G18    29.95F
CHETEK         MOSUNNY   78  64  62 S13G18    29.95F HX  80
LADYSMITH      MOSUNNY   76  63  63 S10G16    30.00S
EAU CLAIRE     MOSUNNY   80  63  55 S14       29.96S HX  81
MENOMONIE      MOSUNNY   79  63  58 S13       29.96F HX  81
NEW RICHMOND   CLOUDY    76  63  64 S15       29.92F
OSCEOLA        CLOUDY    76  64  65 S18G24    29.91F
$$

WIZ003>005-009-010-017-018-051800-
NORTH CENTRAL WISCONSIN

CITY           SKY/WX    TMP DP  RH WIND       PRES   REMARKS
MANITOWISH WTR MOSUNNY   75  62  64 SW13      29.99S
ARBOR VITAE    MOSUNNY   77  62  59 S16G23    30.00F
WOODRUFF       MOSUNNY   77  62  59 S16G23    30.00F
RHINELANDER    MOSUNNY   77  60  55 SW14G21   30.02F
EAGLE RIVER    MOSUNNY   75  61  60 SW10G18   30.01S
LAND O LAKES   MOSUNNY   76  60  56 SW12G17   30.01S
PHILLIPS       PTSUNNY   77  61  59 S13       29.98F
TOMAHAWK       MOSUNNY   75  60  58 S6        30.02F
MEDFORD        PTSUNNY   75  62  62 S14       30.02S
MERRILL        MOSUNNY   76  62  60 S8G16     30.03F
$$

WIZ029-030-035-036-043>047-051800-
CENTRAL WISCONSIN

CITY           SKY/WX    TMP DP  RH WIND       PRES   REMARKS
WAUSAU         MOSUNNY   78  59  51 SW10      30.01F
MOSINEE        MOSUNNY   75  63  64 S9        30.04S
MARSHFIELD     MOSUNNY   79  62  56 S9        30.01F HX  80
STEVENS POINT  PTSUNNY   75  60  57 SW13      30.04S
WAUPACA        SUNNY     81  62  50 SW12      30.04S HX  82
WAUTOMA        NOT AVBL
WISC RAPIDS    PTSUNNY   79  62  56 SW9       30.04F HX  80
CAMP DOUGLAS   NOT AVBL
$$

WIZ011>013-019>022-031-037>040-048>050-051800-
NORTHEAST WISCONSIN

CITY           SKY/WX    TMP DP  RH WIND       PRES   REMARKS
ANTIGO         PTSUNNY   74  63  68 SW10      30.05S
SHAWANO        MOSUNNY   80  61  52 S6        30.03F HX  81
OCONTO         PTSUNNY   78  66  67 S7        30.02F
STURGEON BAY   PTSUNNY   77  63  61 S12       30.06F
GREEN BAY      MOSUNNY   79  63  57 S9        30.04F HX  80
MANITOWOC      NOT AVBL
APPLETON       PTSUNNY   77  59  53 SW9       30.06S
CLINTONVILLE   MOSUNNY   81  59  47 SW8G18    30.04S HX  81
OSHKOSH        MOSUNNY   79  63  57 S9        30.05F HX  80
$$

WIZ032>034-041-042-053>061-051800-
SOUTHWEST WISCONSIN

CITY           SKY/WX    TMP DP  RH WIND       PRES   REMARKS
LA CROSSE      MOSUNNY   81  65  58 S12       29.99S HX  83
SPARTA         SUNNY     80  59  49 S8        30.02S HX  81
VIROQUA        MOSUNNY   78  64  61 SW9G16    30.04F HX  80
BOSCOBEL       SUNNY     82  64  54 S10       30.03S HX  83
PRAIRIE DU CHI MOSUNNY   80  63  55 S9        30.02S HX  81
PLATTEVILLE    MOSUNNY   78  66  66 SW12      30.06S HX  80
$$

WIZ056-057-062-063-064-067-068-051800-
SOUTH CENTRAL WISCONSIN

CITY           SKY/WX    TMP DP  RH WIND       PRES   REMARKS
REEDSBURG      MOSUNNY   78  65  64 SW10      30.04S HX  80
BARABOO/DELLS  MOSUNNY   78  62  58 SW8       30.06R HX  80
LONE ROCK      NOT AVBL
MINERAL POINT  MOSUNNY   79  64  61 S9        30.07R HX  81
MADISON        MOSUNNY   79  62  56 S7        30.06R HX  80
MIDDLETON      PTSUNNY   79  62  55 SW7       30.06S HX  80
WATERTOWN      MOSUNNY   77  65  65 S9        30.07R
MONROE         PTSUNNY   77  63  61 S10G17    30.07S
JANESVILLE     NOT AVBL
$$

WIZ051-052-058>065-066-070>072-051800-
SOUTHEAST WISCONSIN

CITY           SKY/WX    TMP DP  RH WIND       PRES   REMARKS
MILWAUKEE      MOSUNNY   80  60  50 S8        30.07S HX  81
WAUKESHA       NOT AVBL
MILWAUKEE/TIMM SUNNY     79  55  44 SW7       30.07F
RACINE         MOSUNNY   80  60  50 SE12      30.09S HX  81
BURLINGTON     MOSUNNY   76  61  59 S5        30.08S
KENOSHA        SUNNY     79  62  56 W7        30.08S HX  80
FOND DU LAC    MOSUNNY   78  63  59 SW13      30.06S HX  80
SHEBOYGAN      MOSUNNY   79  62  56 SW9       30.07R HX  80
WEST BEND      MOSUNNY   77  59  53 SW9       30.08R
JUNEAU         MOSUNNY   76  64  65 S9        30.08F
$$

LSZ147-162-051800-
LAKE SUPERIOR

STATION/POSITION TIME  TEMP    WIND        PRES    WAVE
                       AIR SEA DIR/SP/G            HT/PER
                 (UTC) (F)     (DEG/KT/KT) (MB)    (FT/S)
W MID LAKE BUOY  1550   53 39  350/  2/  4 1013.5R   0
DEVILS ISLAND    1600   62     120/  3/  4 1012.3F
SAXON HARBOR     1600   78     200/  8/ 16 1013.2R
$$

LMZ867-665-643>646-051800-
LAKE MICHIGAN

STATION/POSITION TIME  TEMP    WIND        PRES    WAVE
                       AIR SEA DIR/SP/G            HT/PER
                 (UTC) (F)     (DEG/KT/KT) (MB)    (FT/S)
CHAMBERS ISLAND  1600   74     160/  4/ 11 1016.9S
N MID LAKE BUOY  1550   55 47  200/ 12/ 14 1017.7R   1/ 3
NORTHPORT PIER   1600   66     140/  6/  9 1017.3R
SISTER BAY       1614   83        CALM       N/A
ALGOMA LAKESHORE 1611          200/  6/  8   N/A
KEWAUNEE LAKESHO 1600   63     170/  9/ 10 1017.3R
SHEBOYGAN LAKESH 1600   62     160/ 13/ 13 1018.4R
PORT WASHINGTON  1640   69     170/  3/  5 1019.0R
ATWATER BUOY     1600   64 61  140/ 10/ 10 1019.4F
MILWAUKEE LAKESH 1600   65     120/  9/ 10   N/A
KENOSHA   LAKESH 1600   68     160/  8/ 10 1018.3S
$$

TC  - TEMPERATURE IN CELSIUS
VSB - VISIBILITY IN STATUTE MILES
WCI - WIND CHILL INDEX
HX  - HEAT INDEX



USA.gov is the U.S. government's official web portal to all federal, state and local government web resources and services.